Location: Mauries
(43.6188°N, 0.3322°W)
Time: 04:31:50
(UTC+00:00)

BREEZE-M DEB (TANK) - Pass Details

Date: 14 January 2026
Orbit: 313 x 16555 km, 49.5° (Epoch: 15 February)

Event Time Altitude Azimuth Distance (km) Brightness Sun altitude
Exits shadow 06:23:01 18° 287° (WNW) 1,674 4.6 -12.3°
Maximum altitude 06:26:11 63° 208° (SSW) 1,202 4.4 -11.8°
Drops below altitude 10° 06:40:52 10° 133° (SE) 6,912 9.6 -9.3°
Sets 06:51:20 0° 132° (SE) 10,509 10.9 -7.5°
